Wind_Speed
38 40 40 40 41 40 38 37 38 37 36 38 39 40 41 44 47 43 41 39 38 47 54 51 55 58 55 53 50 47 46 46 46 44 44 43 41 37 34 35 36 37 36 33 31 28 26 26 25 26 27 29 32 33 34 35 36 38 40 40 40 39 39 40 43 46 48 48 47 47 45 42 40 39 38 37 37 38 38 40 41 42 41 41 40 39
39 40 41 40 39 37 36 35 35 36 35 36 38 39 42 44 46 46 43 41 37 45 54 50 54 59 54 52 50 46 46 47 46 41 37 35 34 35 36 36 35 33 31 30 29 27 24 23 23 24 27 29 32 33 33 35 36 38 40 40 40 40 40 41 43 44 45 47 48 47 44 39 39 39 38 38 37 36 37 39 41 42 42 41 40 40
39 40 39 36 34 33 33 32 32 33 33 35 35 38 43 43 46 49 44 39 36 41 50 49 55 60 54 53 51 46 46 41 35 30 27 31 34 37 37 32 25 19 19 22 23 20 17 15 15 17 20 23 26 30 33 34 36 38 40 41 40 40 41 41 42 43 42 43 45 46 43 39 39 40 40 39 39 39 39 40 41 42 43 42 41 40
39 38 36 32 31 31 32 31 30 33 37 38 38 38 44 43 43 48 43 37 35 39 45 46 54 61 52 43 32 25 28 25 24 29 32 37 38 34 28 18 12 14 17 20 19 13 9 8 11 13 14 17 20 24 28 31 34 36 37 39 40 40 41 42 42 42 41 40 42 43 42 41 41 41 41 42 42 42 42 41 41 42 43 42 42 41
41 37 35 34 34 33 33 33 31 34 39 40 39 38 41 39 35 40 40 37 36 36 36 38 49 51 29 11 6 12 23 30 33 38 40 37 29 17 10 8 14 22 21 18 14 10 8 10 15 17 17 17 18 20 24 28 32 34 36 37 38 40 41 41 42 41 41 41 41 41 41 42 42 42 43 44 43 42 41 40 40 42 42 41 41 41
40 32 30 32 30 28 29 29 26 28 35 38 34 29 30 31 30 34 33 33 35 29 24 25 29 27 12 7 20 31 36 40 37 35 31 19 6 2 5 15 20 19 16 13 11 10 10 16 23 25 24 20 20 22 24 27 29 31 32 33 34 36 38 39 40 40 40 41 41 40 40 41 42 42 43 43 41 39 38 38 39 41 40 40 40 40
33 25 24 26 23 20 21 23 22 22 29 34 28 22 23 26 29 31 27 26 26 22 23 21 14 22 33 33 36 38 36 35 29 23 14 2 5 7 19 25 18 11 12 10 8 8 12 23 30 30 26 21 21 24 27 28 27 27 26 28 30 33 35 37 38 40 40 40 40 40 40 40 40 41 42 41 39 37 36 37 39 40 39 38 38 38
24 20 20 22 21 20 21 22 21 18 25 31 27 23 24 26 27 29 27 25 27 31 33 26 14 22 41 42 35 35 32 25 18 9 1 6 6 18 24 24 15 12 13 11 10 11 18 32 34 28 22 20 22 25 27 28 28 26 25 27 29 32 34 35 37 38 39 40 39 39 39 40 40 41 41 40 38 37 38 39 40 39 38 37 37 37
22 21 23 24 25 26 27 24 20 20 24 27 25 25 25 25 26 28 29 28 30 32 25 16 7 11 34 45 33 30 24 15 11 2 7 4 11 23 23 16 12 12 12 12 12 17 26 33 30 25 21 20 23 26 27 28 27 27 28 29 31 32 33 34 34 35 36 38 39 38 38 38 39 40 40 39 39 39 40 40 40 39 38 37 37 37
21 24 26 27 29 31 29 23 20 21 22 23 24 27 26 25 27 26 27 29 25 22 17 12 6 6 29 43 25 18 15 6 6 1 5 10 20 27 19 10 12 13 13 12 15 25 28 26 25 26 24 22 23 25 26 26 26 27 29 30 32 32 32 30 30 31 33 36 37 35 35 36 37 39 39 39 39 39 39 39 38 38 38 38 37 37
23 27 29 32 33 31 26 21 22 22 22 25 26 28 28 27 30 27 27 25 13 14 21 21 15 9 18 25 10 5 1 6 8 17 20 27 27 23 16 12 12 12 14 17 27 27 21 20 25 28 26 25 25 25 25 25 25 26 28 29 31 29 28 27 28 30 32 33 33 32 33 35 37 38 38 38 38 38 37 37 36 36 37 38 38 38
26 30 32 34 32 28 26 24 26 27 26 28 27 28 26 20 19 16 14 11 3 9 20 18 14 11 16 19 10 6 11 16 27 28 25 30 28 17 13 14 14 16 24 30 28 21 18 24 29 29 27 26 26 26 26 27 26 27 28 28 28 26 24 25 26 28 29 30 31 31 34 36 37 37 37 37 36 35 34 34 34 35 37 39 39 41
33 35 33 33 32 30 29 28 28 30 31 30 27 26 17 8 7 4 2 3 5 12 18 14 10 15 29 42 36 32 35 30 27 28 27 29 27 20 18 22 24 28 32 28 20 19 24 29 28 25 25 26 27 29 29 29 27 27 27 25 25 24 22 22 24 26 27 29 30 32 35 36 36 36 36 35 33 32 31 31 32 34 36 38 40 40
31 33 31 31 32 29 27 27 26 29 28 23 22 22 12 3 2 3 3 3 6 14 19 16 12 15 29 44 40 36 39 36 34 39 39 33 31 31 30 32 31 24 20 17 15 17 19 20 20 18 19 21 26 30 30 28 24 22 23 22 22 22 22 23 24 27 29 30 31 33 34 35 36 35 33 32 31 29 29 30 31 33 36 38 39 38
21 25 29 27 25 25 25 25 24 26 25 22 21 19 17 15 10 5 4 4 7 14 15 9 8 8 18 34 41 43 48 52 49 48 49 46 44 40 32 27 22 14 12 12 12 13 15 17 19 17 17 17 19 23 25 22 18 17 18 19 20 21 23 25 27 29 31 32 33 33 33 34 34 33 31 30 28 28 28 29 30 32 35 37 37 37
21 26 30 24 19 22 24 23 21 22 23 24 21 18 22 27 22 15 14 18 18 14 11 12 14 21 34 48 55 54 54 55 51 48 48 42 38 37 27 17 12 7 6 8 9 13 16 18 19 18 18 19 19 20 19 17 15 14 14 15 16 18 20 22 23 25 27 29 31 32 32 32 31 31 29 27 27 26 26 27 28 31 33 36 37 37
23 24 27 23 18 18 20 21 21 21 19 16 16 21 26 26 24 21 19 22 20 11 12 19 26 35 42 47 53 54 52 51 49 47 44 35 28 27 20 12 9 7 8 11 13 16 17 18 18 17 18 20 20 19 16 15 14 13 13 13 13 13 14 16 17 20 21 23 25 26 27 28 28 27 26 25 24 25 25 26 27 28 31 34 36 37
27 28 33 34 30 25 23 25 26 27 25 21 22 30 30 20 20 20 10 7 9 7 10 19 28 34 29 31 47 54 51 50 48 47 44 33 18 16 18 18 20 21 19 16 16 19 21 20 19 19 19 19 18 17 14 12 11 12 15 16 15 14 14 15 16 18 20 22 21 21 22 23 24 24 23 23 23 24 25 26 27 28 31 33 36 38
28 27 32 37 36 31 28 31 33 33 33 32 34 36 29 17 15 16 9 3 5 6 7 13 23 29 28 34 48 52 50 50 49 44 38 27 17 19 29 35 35 35 30 24 23 25 26 25 24 25 26 25 22 20 18 16 13 13 14 15 16 16 17 18 18 18 20 21 22 21 21 21 21 21 22 22 23 24 25 26 27 29 31 34 37 39
27 21 22 32 37 34 29 30 36 39 36 33 32 31 30 27 24 23 18 12 8 7 9 11 14 18 27 38 44 44 47 51 51 46 39 33 29 30 34 39 41 39 33 31 31 32 33 32 32 31 33 35 34 30 28 27 27 25 24 23 22 21 21 21 21 22 22 22 22 21 20 20 21 22 23 24 26 27 28 28 30 31 33 36 39 41
29 25 25 33 37 37 35 35 40 43 36 31 29 27 29 31 30 25 23 24 21 11 6 8 10 14 25 33 38 44 48 48 49 48 41 34 29 28 31 37 42 40 39 40 41 41 43 42 41 39 40 44 45 41 37 36 37 38 37 36 32 29 28 23 21 23 24 24 25 25 25 24 24 24 26 27 29 31 32 33 34 35 36 38 40 42
29 28 28 30 32 38 42 42 43 42 37 34 33 31 32 33 30 20 15 26 32 21 14 12 9 16 26 30 35 44 46 45 45 45 44 41 37 37 37 38 41 43 47 52 54 55 55 52 50 49 49 49 46 44 42 40 41 42 41 41 39 36 34 30 26 26 26 25 25 26 26 26 27 28 28 29 31 32 34 37 39 39 40 40 41 44
32 30 30 32 37 42 44 43 42 41 40 40 37 35 33 30 30 23 14 21 29 26 24 21 12 16 27 31 35 39 41 43 45 46 48 48 48 47 46 44 44 45 47 52 57 59 59 58 56 54 53 48 44 44 43 41 42 44 45 46 45 43 41 37 34 32 31 30 28 26 25 27 28 29 30 32 33 33 34 37 40 43 44 45 46 47
33 30 30 35 39 40 41 43 45 45 44 42 40 40 38 34 36 35 31 30 25 19 21 17 9 12 17 23 30 31 32 37 42 45 47 49 51 52 53 53 51 48 48 50 53 55 56 56 55 53 50 45 44 45 45 43 44 46 48 49 50 49 47 44 40 37 37 36 34 33 33 34 34 34 33 34 35 35 35 37 40 42 44 47 49 51
28 25 24 24 20 20 24 27 32 38 38 34 31 29 30 33 33 32 35 33 20 18 25 16 9 17 23 25 31 32 33 39 42 44 46 49 53 55 56 57 55 53 51 49 49 50 51 51 51 49 47 45 45 46 46 46 47 47 48 50 51 51 50 48 46 45 44 43 43 43 43 43 43 42 41 39 38 37 37 38 41 43 44 45 48 51
33 30 28 21 10 8 11 12 15 21 23 23 23 20 21 25 26 25 31 27 15 20 30 22 17 29 34 32 35 37 37 40 43 46 48 50 53 54 54 54 55 54 53 49 49 49 49 49 48 47 47 47 48 50 50 50 50 50 52 52 53 54 54 53 52 50 49 48 48 50 51 53 53 52 50 47 45 43 41 40 42 45 46 46 47 49
31 29 31 31 26 24 26 27 27 27 27 31 33 33 33 35 35 34 31 27 26 29 31 31 34 38 38 37 41 43 43 43 44 47 50 52 54 55 55 56 57 57 55 53 53 52 51 50 48 47 48 48 49 51 53 55 55 56 57 57 58 58 57 56 54 52 49 47 48 49 51 54 57 58 57 55 51 49 48 47 47 47 46 46 48 50
35 33 35 37 37 36 38 41 42 40 38 38 37 38 39 37 35 35 34 35 36 29 25 34 42 40 39 42 45 48 50 50 50 51 54 57 58 59 59 59 59 57 56 55 54 53 52 51 50 49 48 47 48 48 51 54 56 57 57 58 58 57 56 55 54 52 50 48 48 48 48 50 52 55 57 57 56 54 52 51 50 49 47 46 48 51
38 39 43 43 41 41 43 44 44 40 36 33 32 34 35 34 35 39 42 43 40 31 32 42 48 45 43 42 44 48 50 51 50 50 51 53 54 54 55 57 58 59 59 58 56 53 51 50 50 49 47 46 45 45 45 47 50 52 53 55 55 54 54 54 54 53 52 50 47 46 46 47 49 51 53 54 55 55 53 51 51 50 49 47 48 50
31 33 36 34 32 33 35 37 37 35 32 32 32 32 32 36 42 46 48 47 45 45 47 49 48 45 41 39 42 44 44 44 45 45 46 46 47 49 51 53 56 57 56 54 52 50 48 46 45 44 44 44 43 43 43 43 44 47 49 51 52 52 51 51 51 52 51 50 47 46 46 46 48 50 51 52 53 53 52 51 51 51 50 49 49 50
27 27 28 27 28 28 30 31 32 32 33 34 35 36 39 44 49 50 50 50 49 48 48 46 44 40 35 34 36 35 35 36 37 40 43 45 45 48 49 51 52 51 50 48 47 45 43 42 42 42 42 42 41 40 40 40 41 42 44 47 49 50 49 48 48 49 50 50 49 49 49 50 51 52 53 54 55 54 54 53 53 52 53 52 52 52
29 30 31 31 31 33 37 36 34 36 37 37 39 43 47 50 51 50 49 49 48 48 49 47 45 41 37 33 31 29 31 33 35 37 41 42 42 43 44 45 46 46 45 44 43 42 41 41 41 41 41 41 39 38 37 38 38 39 41 43 46 49 51 50 49 50 51 53 54 54 54 55 55 55 55 56 57 57 57 56 55 54 53 53 54 54
36 34 35 33 28 32 40 40 37 33 27 29 41 48 48 48 48 45 44 44 45 47 47 44 41 39 38 34 31 29 30 32 33 33 35 36 36 34 35 36 37 38 39 40 40 40 41 41 40 39 39 39 38 37 35 36 37 38 39 41 45 49 52 53 53 52 53 55 57 58 59 58 58 56 55 56 59 60 60 59 57 55 53 53 53 54
41 39 38 34 28 32 44 44 35 23 18 30 46 47 41 38 37 35 35 38 40 41 40 39 37 34 33 32 32 30 27 26 25 25 27 29 30 31 33 34 36 38 40 41 42 43 44 45 44 42 40 39 39 38 36 35 35 36 35 36 39 43 47 50 51 51 52 54 55 57 59 59 58 57 55 55 57 60 61 61 60 57 55 54 53 53
49 49 46 40 34 35 41 35 21 12 18 31 35 30 28 29 28 27 29 30 33 33 31 31 29 27 26 25 25 26 25 24 24 25 28 30 32 36 38 40 42 45 46 47 48 49 50 52 52 51 49 47 45 44 42 40 38 37 35 34 35 37 40 44 47 48 49 49 50 51 52 54 55 55 54 53 54 57 59 60 60 58 56 56 55 53
54 52 47 43 36 29 24 19 13 13 19 24 24 25 30 30 27 26 25 23 23 22 20 20 20 20 21 21 22 26 29 30 31 32 35 38 40 43 45 47 50 51 52 54 54 55 57 57 58 58 58 57 55 53 51 50 47 45 42 39 38 37 37 39 43 45 46 46 45 44 45 47 49 51 53 53 52 54 56 58 59 58 58 58 56 54
42 42 40 36 30 22 18 21 23 24 24 26 29 31 30 26 24 22 18 15 16 17 18 20 20 19 21 24 28 32 35 37 39 39 41 43 44 46 48 50 53 54 55 56 56 57 57 58 58 59 60 61 61 59 58 58 56 55 52 49 47 43 40 40 41 43 44 44 42 41 41 43 46 49 52 52 52 52 54 56 58 58 59 60 58 56
26 28 29 28 24 21 19 17 15 14 14 17 22 22 19 18 17 14 15 18 22 22 21 21 20 22 27 32 35 38 39 42 44 44 44 44 44 46 47 49 51 53 55 55 55 55 55 55 57 58 58 59 59 58 58 58 59 59 58 56 54 51 48 44 43 43 44 44 43 42 41 41 43 47 50 51 50 50 51 53 56 57 58 59 60 59
18 17 20 23 23 22 18 11 7 9 11 12 15 17 16 17 18 18 17 19 22 20 17 18 22 29 35 37 37 37 38 40 45 46 45 44 45 46 48 49 50 50 52 53 53 53 53 53 54 55 55 55 55 54 54 55 56 57 56 56 56 56 55 52 49 47 47 46 46 45 44 42 42 42 45 47 47 47 47 48 51 54 55 56 58 58
15 14 16 22 25 25 22 18 15 17 19 18 18 19 20 23 24 19 12 10 12 14 17 24 31 35 38 37 36 35 35 37 42 45 44 45 46 47 48 49 50 51 51 52 52 51 51 51 51 52 52 51 51 51 51 52 52 52 52 53 54 54 55 56 56 54 51 50 48 47 47 46 44 42 41 41 42 43 44 45 46 48 50 51 53 55
17 18 19 22 26 28 27 24 21 24 28 28 27 28 30 28 22 18 18 20 22 24 29 35 37 37 38 37 35 36 37 38 41 44 45 46 47 47 48 48 49 50 51 50 50 50 51 51 51 51 51 49 49 49 49 50 51 50 49 49 51 51 51 52 55 56 56 55 52 51 50 49 48 47 45 42 40 39 39 41 41 42 44 46 48 50
19 19 19 23 27 28 30 27 22 25 31 32 30 30 29 24 21 23 27 30 30 31 34 36 36 37 37 37 37 38 40 42 43 45 46 47 48 49 49 49 50 50 50 49 50 50 50 52 52 52 52 51 49 48 48 50 51 51 49 47 47 47 48 49 51 52 55 57 56 54 53 51 51 51 49 48 45 41 38 37 37 38 40 42 44 46
20 15 15 19 19 19 21 19 14 17 24 25 24 23 21 21 24 28 31 31 31 33 35 35 36 36 36 37 39 41 42 44 44 46 47 47 49 50 51 51 51 51 50 50 51 51 51 53 54 54 54 53 52 51 50 51 52 52 52 50 47 46 46 48 48 49 50 53 55 55 54 54 53 53 52 51 50 47 43 39 36 36 37 38 40 42
25 22 21 22 20 17 19 18 17 22 26 26 25 25 26 28 30 31 32 33 33 34 35 35 35 35 36 38 40 41 43 45 46 47 48 48 50 51 52 52 51 51 51 52 52 53 53 54 56 56 56 55 54 54 54 54 54 53 53 53 52 51 50 50 50 49 48 48 49 51 53 54 54 54 54 53 52 51 49 46 41 37 35 36 38 39
26 23 23 25 26 25 26 30 34 34 34 34 35 35 34 33 32 32 33 34 35 35 36 36 37 37 38 40 41 43 45 46 47 48 49 50 51 52 53 53 52 52 52 53 53 54 55 57 58 59 59 58 56 56 57 58 59 58 56 55 56 57 56 55 54 53 51 49 47 48 49 51 53 54 53 53 53 52 50 50 48 43 38 35 35 35
34 31 31 33 35 34 36 40 42 39 38 38 38 35 33 31 32 33 34 34 35 36 37 37 38 39 39 41 43 45 46 47 48 49 50 52 53 53 53 53 53 53 53 54 55 56 57 59 60 61 61 61 60 60 60 61 62 63 61 60 61 61 61 61 60 58 56 53 51 49 48 49 50 51 52 52 53 53 51 50 51 50 45 40 36 35
41 39 38 38 39 39 41 43 41 39 38 36 33 31 30 31 33 32 32 34 37 38 38 39 39 39 40 43 45 46 47 48 49 51 52 53 54 55 55 55 54 54 55 55 56 58 59 61 63 63 64 65 64 63 64 64 65 65 66 66 66 66 66 65 65 63 61 59 56 54 52 51 49 49 50 51 52 52 52 50 50 52 52 49 44 41
42 40 39 39 39 41 45 46 43 40 38 35 32 30 31 33 34 32 33 36 38 37 38 39 40 40 42 43 45 47 48 49 50 52 53 54 55 55 56 56 56 56 56 57 58 60 62 63 65 66 67 68 68 68 68 69 68 68 69 70 70 70 70 70 69 68 67 64 62 59 56 55 53 50 50 51 51 52 52 51 50 51 52 54 53 50
39 39 41 41 41 45 47 46 42 41 39 36 34 34 35 37 36 35 35 36 37 37 39 40 40 42 43 45 46 48 49 51 52 52 53 53 55 55 56 56 57 57 58 59 61 62 64 66 68 69 70 71 71 71 72 72 71 71 72 73 73 74 74 73 72 72 70 68 67 64 60 58 57 55 53 51 51 52 52 51 50 51 51 53 55 55
40 42 43 40 42 47 48 43 40 41 41 39 37 38 38 37 36 35 35 36 37 38 39 39 41 42 44 46 47 49 51 52 52 52 53 54 55 56 56 56 57 59 60 62 63 65 67 69 70 72 73 74 74 74 75 75 75 75 75 77 78 78 77 76 75 74 73 72 70 67 64 62 60 59 58 55 53 53 53 51 50 51 51 52 54 56
46 47 46 43 45 49 47 42 40 43 44 42 38 38 37 36 36 36 37 37 38 39 39 41 42 44 45 46 48 49 51 52 52 53 54 55 55 56 57 58 60 62 63 65 67 69 70 71 73 74 75 76 76 77 78 78 78 77 78 79 80 80 79 77 76 75 74 73 72 70 67 65 62 60 60 59 56 54 54 53 51 51 50 50 52 54
Wind_Direction
274 271 268 270 276 281 286 287 287 290 289 287 287 286 286 286 285 289 293 299 304 295 290 293 293 293 294 294 294 294 291 288 288 290 293 295 297 298 298 299 301 303 305 303 295 288 285 281 277 276 274 272 272 272 268 265 261 258 258 258 260 260 260 259 258 255 252 252 254 257 260 262 262 261 260 261 263 262 261 259 256 254 253 252 250 248
270 267 269 276 283 288 288 285 284 284 283 284 285 285 284 282 286 294 297 301 303 293 291 297 297 294 295 294 294 293 291 290 291 294 294 294 295 297 301 304 304 304 305 302 294 288 285 282 280 279 278 275 273 270 266 262 259 257 258 258 259 259 259 260 260 260 257 256 256 257 261 261 259 258 256 258 260 259 258 257 256 254 252 251 248 246
267 267 275 283 287 286 283 282 283 284 284 283 282 282 282 285 292 297 299 303 305 297 295 301 299 294 296 296 295 294 292 293 296 297 298 299 299 303 307 306 303 308 316 318 310 295 286 288 289 288 285 280 275 271 267 264 261 258 257 258 258 257 258 260 261 263 262 260 257 257 257 255 253 253 253 254 256 255 254 253 252 252 250 247 245 243
267 272 281 284 282 280 280 282 283 284 283 281 280 280 281 289 293 293 299 308 306 299 299 303 299 296 300 301 300 303 298 294 299 302 305 306 307 308 307 304 311 328 326 319 315 299 275 292 303 301 297 287 281 276 270 267 264 260 258 257 257 257 259 260 262 263 263 261 258 256 254 251 249 249 249 250 253 254 255 254 253 252 249 244 242 240
269 275 281 279 278 279 280 281 282 283 283 282 281 280 284 293 295 292 301 307 302 300 302 306 303 301 310 324 329 323 304 301 305 308 311 313 313 308 294 305 322 324 320 306 296 275 265 306 314 308 305 292 284 283 277 270 266 264 262 260 259 260 262 263 264 264 263 261 260 258 254 250 249 249 249 251 255 258 259 259 258 256 251 245 241 239
272 277 280 279 279 280 280 282 284 283 281 282 284 287 291 298 298 297 303 305 301 303 306 314 314 306 303 282 295 303 305 309 315 319 323 321 313 277 309 323 321 317 310 291 274 262 276 309 314 312 308 294 283 284 282 275 270 268 267 266 265 266 267 267 267 266 265 264 263 260 255 252 253 253 254 257 262 264 264 264 261 258 253 246 242 240
277 282 281 281 282 280 279 285 292 288 281 280 288 299 298 298 298 297 302 300 295 298 299 303 302 292 293 292 297 305 312 318 324 330 334 113 118 343 328 326 320 299 280 265 252 259 292 311 314 314 308 290 279 280 280 278 274 269 266 268 269 269 270 269 269 269 268 267 265 262 257 254 254 255 257 260 261 261 259 258 257 256 252 245 241 241
282 291 288 288 287 283 283 292 301 298 284 281 292 302 296 295 296 295 298 292 290 296 296 293 278 278 288 292 301 308 313 326 337 344 132 138 25 340 329 324 305 271 266 246 228 254 298 315 317 314 303 287 280 278 276 277 276 269 265 269 273 274 274 272 271 271 271 270 266 262 257 254 255 255 256 257 256 254 253 253 253 252 248 241 238 238
284 290 289 290 288 289 294 301 302 293 284 285 295 297 290 290 288 287 290 287 293 298 296 296 274 256 281 290 302 308 309 335 349 346 172 187 333 326 317 307 276 258 259 239 239 274 301 316 319 308 290 280 279 278 277 278 277 273 269 273 279 283 282 278 274 273 272 270 265 261 257 254 253 253 254 254 253 254 254 253 252 249 243 237 235 234
285 287 289 290 289 293 298 301 294 285 283 286 290 287 283 284 281 281 283 284 292 292 281 280 253 230 286 293 304 310 305 16 41 323 236 275 310 314 303 269 254 248 231 239 279 296 303 313 317 304 285 274 279 283 282 280 280 279 276 278 284 288 287 281 276 273 268 265 262 260 256 253 253 253 253 253 253 255 256 254 253 248 239 233 231 231
283 285 287 288 290 293 294 292 288 285 284 283 281 279 279 280 279 278 275 276 285 278 270 273 266 250 284 297 336 23 99 79 340 308 296 293 301 306 291 261 260 245 234 275 300 300 302 309 304 295 282 273 279 286 285 282 282 284 284 286 290 293 290 282 276 271 265 260 258 255 253 253 253 253 252 253 255 256 256 255 254 247 238 232 228 227
282 284 285 286 286 286 287 288 288 288 286 282 277 275 279 283 282 277 266 257 225 266 273 279 277 242 243 272 304 301 285 308 311 307 304 302 302 298 277 263 270 282 288 297 300 296 302 303 292 284 279 274 277 286 289 286 285 287 289 291 294 296 291 281 275 271 264 258 255 253 253 254 253 252 252 254 255 255 255 254 252 245 236 231 227 226
282 281 280 280 278 277 281 283 285 287 285 281 274 267 271 295 300 276 211 199 199 251 272 282 267 229 248 270 283 290 298 308 311 308 308 307 304 294 282 281 286 293 295 293 291 295 302 299 291 286 281 275 277 286 292 293 292 291 292 294 296 295 286 276 270 265 261 257 255 254 253 253 251 251 252 253 253 252 252 251 248 241 233 230 229 230
283 281 275 272 272 273 273 276 283 287 282 275 266 256 241 206 294 261 245 276 250 260 275 275 253 237 259 277 288 296 302 305 305 305 304 301 301 298 296 298 297 290 285 285 291 304 312 312 311 306 295 289 287 289 294 298 297 293 293 295 295 290 279 267 260 258 257 257 255 253 251 250 250 251 252 252 250 248 250 249 246 239 232 229 230 232
276 278 279 274 268 267 269 274 281 279 272 268 267 258 243 237 241 245 241 251 271 278 277 249 214 230 264 279 289 294 297 298 298 298 298 296 294 293 293 294 288 270 269 286 304 319 329 333 330 322 317 319 316 305 299 300 299 291 289 289 287 280 272 264 259 257 258 257 256 253 251 250 251 253 252 248 245 244 245 246 244 238 233 232 231 231
271 274 282 279 264 266 275 276 271 265 262 264 259 245 244 249 251 254 253 255 268 282 270 237 237 261 275 283 289 293 294 295 296 297 298 297 291 284 281 274 260 252 282 309 338 341 336 335 327 320 326 336 337 327 310 300 296 287 277 271 270 268 266 264 262 261 260 259 258 255 252 251 252 252 249 245 243 243 244 245 243 239 236 234 231 231
266 268 276 277 273 272 273 271 263 257 254 249 240 244 256 262 260 260 263 265 267 274 265 256 261 271 279 286 289 291 294 294 297 299 299 300 294 278 263 248 255 290 319 328 341 341 335 332 323 320 333 337 332 329 318 301 291 280 267 254 249 254 262 267 270 271 268 264 261 257 253 252 252 250 247 244 243 244 243 243 243 241 239 236 235 235
258 261 266 269 275 273 267 269 267 256 250 245 248 261 268 269 262 257 261 270 255 257 260 249 259 271 276 282 287 289 292 293 296 298 298 298 288 259 265 286 293 292 295 302 310 312 312 314 312 312 322 325 319 317 311 293 272 265 261 251 247 255 265 270 275 280 281 276 270 266 260 255 252 249 245 243 243 243 243 243 243 244 243 242 242 241
253 258 262 262 268 273 270 270 266 258 255 255 258 264 263 258 257 247 234 252 245 250 264 240 250 263 261 268 282 287 289 294 295 292 290 285 266 264 283 293 289 279 277 280 286 292 294 296 299 300 301 303 302 300 295 284 266 256 255 254 257 268 281 288 289 291 290 282 274 269 265 260 256 253 250 247 246 246 246 247 248 250 251 249 247 247
255 261 263 263 269 276 270 263 263 264 264 260 257 257 256 255 259 252 241 247 256 258 270 258 250 253 253 261 273 280 286 294 295 290 287 287 284 281 281 280 276 270 269 274 280 285 287 289 291 291 292 295 295 292 290 287 282 277 274 271 266 268 280 293 297 296 294 287 276 266 261 258 257 256 255 254 252 251 250 250 251 252 253 252 252 251
264 260 259 267 270 267 261 259 265 269 267 261 255 253 256 259 261 259 251 251 258 264 267 266 257 247 251 260 269 277 284 290 290 289 293 297 293 282 274 274 273 269 270 276 279 282 284 287 290 289 291 294 294 290 287 284 282 280 277 274 270 268 271 279 286 286 283 279 275 271 267 262 254 251 251 252 253 254 253 252 252 253 253 253 253 252
267 259 254 259 256 253 258 265 268 269 267 268 267 264 265 264 259 258 260 255 253 250 249 259 261 253 255 261 268 276 283 286 284 285 288 290 288 282 277 275 271 269 272 275 277 281 284 286 289 290 292 295 293 289 286 281 277 274 271 272 274 274 273 273 272 269 264 260 260 264 266 261 254 251 251 252 254 255 256 256 256 256 255 256 256 254
272 268 261 257 254 258 265 269 267 268 270 272 272 270 268 262 253 248 251 256 253 249 254 262 264 263 265 266 269 276 282 283 282 283 284 285 285 284 282 278 274 271 270 272 274 279 283 287 290 292 294 296 292 288 287 283 277 273 271 272 274 276 278 276 271 264 258 253 249 248 251 253 257 261 262 262 261 261 260 260 260 258 256 255 256 256
267 262 259 262 265 267 268 268 268 271 273 270 266 266 263 257 255 253 252 258 262 260 263 267 263 263 269 273 277 281 281 278 278 279 280 280 281 283 284 284 283 281 279 279 280 282 286 289 292 292 293 291 288 286 287 286 283 279 276 275 276 278 280 280 276 267 259 254 250 248 251 254 258 262 263 265 267 266 266 265 263 260 259 257 256 255
264 257 256 264 272 270 267 269 268 267 267 267 266 266 264 264 266 266 265 267 269 264 262 260 258 265 272 280 281 278 274 272 273 273 273 275 277 280 283 286 288 290 289 288 288 288 289 289 288 288 287 286 284 283 283 284 283 282 280 280 280 280 281 281 279 274 268 262 258 256 257 260 262 262 262 264 265 264 264 265 264 261 260 259 259 259
264 259 256 257 257 256 263 262 255 255 263 276 281 274 270 275 278 282 281 276 270 268 264 258 268 276 280 285 283 278 274 270 268 269 271 273 276 279 283 286 290 291 292 292 290 289 288 286 284 283 282 282 282 282 282 282 281 280 280 281 281 282 282 281 281 279 274 270 266 263 263 264 265 266 267 269 267 263 260 258 258 261 262 260 260 262
264 263 260 259 259 260 266 268 267 270 278 285 286 281 278 277 277 280 280 270 268 273 269 267 275 280 283 285 283 281 280 276 274 275 276 276 278 280 282 286 289 290 291 292 292 291 289 287 284 282 281 280 280 280 280 281 281 281 281 281 282 283 282 282 282 281 276 273 271 270 268 267 265 265 267 269 269 265 262 259 256 257 261 260 257 258
271 274 271 270 270 270 273 275 277 280 281 281 280 280 279 279 279 280 275 269 273 276 273 277 281 284 286 286 285 285 285 284 284 283 282 280 279 280 281 283 285 286 288 290 291 291 290 288 287 285 284 282 281 280 280 280 281 282 283 284 284 284 283 283 283 281 278 276 274 271 270 269 267 266 265 265 265 264 263 262 258 255 256 257 254 253
272 274 274 274 275 275 276 277 277 277 276 275 274 275 278 280 281 280 278 278 281 277 276 282 285 286 286 284 283 284 284 284 284 283 282 281 281 281 282 282 282 283 285 287 288 290 290 290 289 289 287 286 284 282 281 281 282 284 285 285 285 284 283 282 282 281 279 277 273 269 268 267 267 266 265 264 263 262 262 261 260 258 256 256 254 251
271 273 275 275 275 273 271 271 272 272 274 277 277 278 281 281 280 279 280 282 281 278 278 282 284 284 282 279 279 280 279 280 281 280 281 281 281 282 282 282 281 281 283 284 286 288 289 290 291 290 289 288 286 285 283 282 282 283 284 284 283 282 280 280 279 278 278 275 271 269 268 267 268 268 268 266 264 262 261 260 260 259 258 257 255 252
269 268 268 269 273 270 264 266 270 274 280 283 281 280 280 279 278 279 280 280 279 278 279 280 280 279 275 273 274 273 273 276 276 276 279 280 280 281 280 280 279 279 281 284 285 286 287 288 289 289 289 288 287 286 284 282 279 279 279 280 281 280 278 276 274 273 273 272 270 269 269 270 272 273 272 271 269 266 263 261 261 261 260 260 258 254
265 265 267 272 278 276 271 274 279 283 285 283 280 279 279 278 279 280 280 279 278 278 279 278 277 274 271 269 268 266 270 273 274 276 278 278 279 280 278 277 277 278 281 284 286 288 288 287 288 288 288 288 287 286 285 283 279 276 274 274 275 276 276 274 272 271 270 270 270 271 273 273 275 275 275 273 272 270 267 264 263 261 261 262 260 255
263 268 276 280 282 280 279 282 287 291 289 281 278 280 281 281 282 281 278 275 274 273 274 273 272 271 270 269 269 269 270 270 270 273 275 276 279 283 282 281 282 285 287 290 293 295 296 295 293 292 290 290 289 289 289 288 286 282 278 274 271 272 273 273 274 274 273 274 275 277 278 279 278 277 275 273 271 270 269 267 265 262 261 262 261 256
270 274 280 280 276 279 283 286 290 291 281 277 281 283 284 284 283 280 274 268 266 266 266 268 269 269 268 268 270 272 273 272 271 272 277 281 285 289 291 292 293 296 297 298 300 302 302 302 301 299 297 295 294 294 293 293 291 289 288 285 280 276 273 273 275 276 277 277 278 279 279 280 279 277 274 272 270 268 268 267 266 263 260 260 259 256
274 275 279 277 271 274 280 284 289 281 268 277 285 286 285 285 284 278 271 266 266 267 267 267 266 263 262 264 269 276 282 285 285 287 292 295 296 298 299 300 301 302 302 302 302 302 303 303 303 303 302 301 300 299 297 296 294 292 292 293 293 289 282 277 274 275 275 275 275 275 276 276 276 275 273 270 268 266 266 265 264 262 259 258 257 256
272 272 273 270 266 266 266 257 252 263 272 282 289 288 285 284 280 275 272 269 270 271 269 269 267 265 267 273 282 291 296 297 295 298 303 306 307 307 305 304 304 305 304 304 304 305 306 306 306 306 305 304 304 303 301 299 298 296 294 295 296 295 292 286 280 274 272 271 271 272 272 272 272 273 273 272 269 266 263 262 261 259 257 256 256 256
267 264 261 258 255 251 243 241 252 267 275 279 280 280 279 274 269 271 275 273 274 279 282 281 279 280 287 295 300 304 305 303 300 303 309 313 313 312 311 308 308 307 307 308 309 310 310 310 309 308 307 306 305 305 304 303 301 300 298 296 296 294 293 292 289 283 276 271 269 270 271 271 271 272 273 273 271 268 264 260 259 257 256 253 252 253
255 251 250 247 244 244 246 251 258 262 266 273 271 264 259 257 262 280 294 289 286 287 285 283 287 300 309 313 313 313 312 308 304 306 312 315 314 314 313 312 311 311 311 311 312 312 311 310 309 309 309 308 308 308 307 305 303 302 301 299 298 295 292 290 289 290 287 281 275 273 272 270 269 270 271 271 270 268 265 261 258 257 256 253 251 250
247 241 240 238 240 245 249 254 258 253 260 270 262 252 254 266 282 300 307 298 293 291 285 284 296 308 313 315 315 314 312 310 306 305 308 312 313 314 313 313 313 313 312 312 313 313 312 311 310 309 308 308 309 309 309 307 305 304 303 301 300 298 294 290 288 287 288 287 284 280 277 273 270 267 267 268 268 267 265 263 259 257 256 254 251 249
243 234 228 230 237 244 250 257 261 259 260 262 257 257 270 285 295 302 300 291 293 294 293 296 301 304 308 311 311 309 308 307 307 306 306 307 309 311 312 312 313 313 313 312 312 313 313 312 310 309 308 308 308 308 309 308 307 305 304 302 301 299 297 294 291 288 285 285 285 285 284 281 276 272 269 268 267 266 264 263 260 256 254 251 250 249
244 238 234 238 245 249 252 257 261 262 264 265 265 268 276 284 288 282 275 280 288 294 297 300 302 302 303 305 305 304 304 305 306 306 306 306 307 309 310 311 312 312 313 312 313 313 313 312 311 310 310 310 309 308 308 308 306 305 305 304 302 300 298 296 294 291 288 284 283 284 285 285 282 278 275 272 271 268 265 263 261 258 254 251 249 248
254 249 245 247 251 254 254 256 264 269 268 268 270 273 275 275 273 276 284 291 296 298 299 300 300 300 301 301 301 302 303 303 304 305 306 307 308 309 309 310 310 310 311 311 311 312 311 310 310 310 310 310 310 309 308 307 305 305 305 305 305 303 301 297 294 292 290 287 284 283 284 284 284 282 279 276 275 273 268 264 261 259 257 253 250 248
257 257 252 248 249 251 249 247 255 267 269 272 276 275 270 271 279 288 294 296 297 298 298 297 297 298 298 298 299 300 301 302 303 304 306 307 308 308 308 309 309 309 309 309 310 310 308 307 308 309 309 310 310 309 308 306 305 304 304 305 305 303 301 299 296 293 290 287 286 284 283 282 282 282 281 279 277 275 272 268 262 258 256 254 251 249
254 256 259 260 259 251 241 242 255 267 274 279 279 275 277 283 290 295 295 294 296 298 297 296 297 297 297 298 300 300 300 302 303 304 305 306 307 307 307 307 307 307 307 307 307 307 306 305 306 307 307 308 308 308 307 305 304 303 302 303 303 301 299 297 296 294 291 288 285 283 282 280 280 280 280 279 277 276 274 271 267 261 255 252 251 249
258 260 265 269 267 260 257 264 272 274 276 279 278 280 285 288 290 292 293 295 297 298 297 297 297 297 298 299 300 300 300 302 303 304 305 305 305 305 305 305 305 305 305 305 306 306 304 303 304 304 305 305 306 305 304 304 303 302 301 301 300 299 297 296 295 293 292 290 287 283 280 278 276 277 277 277 276 275 274 272 269 265 260 257 254 251
271 272 272 273 275 273 270 272 274 277 281 284 284 284 285 287 290 292 294 296 298 297 297 297 296 296 297 298 299 300 301 302 303 303 303 303 303 303 303 303 303 303 303 303 304 303 302 301 301 302 302 303 303 303 302 301 301 301 301 300 298 297 296 294 293 292 291 290 289 286 283 279 275 273 273 274 273 273 272 271 269 267 264 263 261 258
277 277 274 275 276 273 271 273 278 284 288 289 287 285 285 290 295 294 293 295 298 297 296 295 294 295 295 296 298 300 301 301 302 302 302 302 301 301 302 302 302 302 301 302 302 301 300 300 300 300 300 300 301 301 300 298 298 298 298 297 296 295 293 292 291 290 289 289 288 287 285 282 277 273 270 270 270 270 269 268 268 267 265 264 264 263
279 279 276 274 273 271 272 278 285 288 289 290 288 288 292 296 296 292 290 293 295 295 294 294 293 293 294 296 298 299 300 300 301 301 300 299 299 300 301 301 301 300 300 301 301 300 299 299 299 299 298 298 299 298 297 296 296 295 294 293 293 292 291 290 289 288 288 288 287 286 284 283 280 276 271 268 267 266 266 266 265 265 264 264 264 264
279 275 272 272 273 273 275 281 289 291 291 291 290 291 296 298 296 292 291 292 293 293 292 291 291 293 295 297 298 299 299 299 299 299 298 298 298 299 299 299 299 299 299 299 299 299 298 298 298 298 297 297 297 297 295 294 293 293 292 291 290 289 289 288 288 287 287 286 286 285 283 282 280 278 274 270 266 264 263 263 263 262 262 262 262 262
271 269 269 269 269 273 279 288 295 294 292 293 293 293 295 296 293 291 291 291 291 292 292 292 292 294 296 297 298 299 299 298 298 297 297 297 298 299 299 298 297 297 297 298 298 299 299 299 298 297 297 297 296 295 294 293 292 292 292 291 290 289 288 287 287 286 285 285 284 283 283 281 278 277 275 273 269 265 262 261 260 260 259 259 259 260
268 269 271 269 269 275 285 294 296 293 292 294 295 293 292 290 289 289 289 289 290 292 294 295 295 295 295 296 297 297 297 296 296 296 297 298 299 299 298 297 297 297 298 299 300 300 299 298 298 297 296 296 295 294 294 293 293 293 293 292 291 290 289 288 287 285 283 283 282 282 281 279 277 275 274 272 271 268 264 260 258 258 257 256 256 256
Height
3126 3122 3120 3123 3124 3126 3128 3128 3125 3123 3123 3121 3119 3118 3115 3112 3107 3109 3111 3113 3117 3103 3092 3097 3090 3084 3088 3088 3090 3092 3091 3090 3089 3091 3091 3089 3088 3087 3087 3086 3084 3082 3081 3080 3079 3079 3080 3079 3079 3079 3078 3078 3078 3078 3077 3077 3077 3077 3078 3078 3078 3078 3078 3078 3078 3079 3080 3081 3081 3082 3083 3085 3086 3087 3087 3088 3089 3090 3091 3091 3092 3093 3094 3095 3096 3097
3120 3116 3117 3121 3123 3124 3124 3124 3122 3121 3120 3118 3117 3114 3111 3109 3103 3104 3109 3109 3113 3101 3087 3091 3085 3077 3082 3082 3084 3087 3085 3084 3084 3086 3086 3085 3084 3083 3082 3081 3080 3078 3076 3075 3074 3074 3075 3074 3074 3074 3074 3074 3073 3073 3072 3072 3072 3072 3073 3073 3074 3074 3073 3073 3074 3074 3075 3077 3078 3078 3080 3081 3082 3082 3083 3084 3085 3085 3086 3086 3087 3088 3089 3090 3091 3092
3114 3112 3116 3120 3121 3121 3119 3119 3120 3118 3117 3115 3114 3112 3106 3107 3103 3098 3103 3105 3107 3098 3086 3087 3077 3067 3076 3077 3077 3081 3080 3080 3081 3081 3082 3081 3080 3079 3078 3077 3075 3074 3073 3072 3071 3070 3071 3071 3070 3070 3070 3069 3069 3068 3068 3068 3067 3067 3067 3068 3068 3068 3069 3069 3069 3070 3071 3073 3074 3074 3076 3076 3076 3077 3078 3079 3079 3079 3080 3080 3081 3082 3083 3084 3086 3087
3108 3110 3115 3118 3117 3116 3115 3116 3117 3114 3112 3110 3111 3110 3103 3105 3104 3094 3096 3100 3101 3095 3087 3084 3071 3059 3067 3070 3070 3075 3075 3077 3079 3077 3078 3077 3075 3075 3073 3072 3071 3071 3071 3070 3069 3068 3068 3068 3067 3067 3066 3066 3065 3065 3064 3063 3062 3062 3063 3063 3063 3063 3064 3064 3064 3065 3067 3068 3068 3069 3070 3070 3070 3071 3072 3072 3073 3074 3074 3075 3076 3076 3077 3079 3080 3082
3104 3109 3113 3113 3112 3112 3112 3112 3114 3111 3106 3105 3107 3108 3102 3102 3103 3096 3094 3095 3093 3092 3088 3083 3066 3052 3060 3065 3064 3071 3073 3073 3075 3073 3073 3072 3070 3070 3069 3069 3069 3068 3067 3066 3066 3066 3065 3065 3065 3064 3063 3062 3062 3061 3060 3059 3058 3058 3059 3059 3059 3060 3060 3060 3061 3061 3062 3062 3063 3064 3065 3065 3065 3065 3066 3067 3068 3069 3070 3071 3072 3072 3073 3075 3076 3078
3101 3108 3109 3108 3108 3109 3109 3108 3110 3108 3102 3101 3103 3104 3101 3099 3099 3097 3096 3092 3087 3087 3087 3086 3072 3051 3053 3061 3061 3065 3069 3068 3069 3068 3066 3066 3066 3067 3068 3068 3068 3066 3064 3063 3063 3063 3063 3063 3062 3062 3061 3059 3058 3058 3056 3055 3055 3055 3056 3056 3056 3057 3057 3057 3057 3057 3057 3058 3058 3059 3059 3060 3060 3061 3062 3063 3065 3066 3067 3068 3068 3068 3069 3071 3072 3074
3099 3106 3106 3105 3105 3106 3107 3105 3106 3106 3101 3098 3099 3101 3100 3098 3097 3095 3095 3093 3087 3084 3083 3087 3085 3061 3045 3051 3057 3059 3062 3062 3063 3063 3062 3063 3064 3064 3066 3065 3064 3063 3061 3060 3060 3059 3060 3060 3060 3059 3058 3056 3055 3054 3052 3052 3052 3052 3052 3053 3053 3053 3053 3053 3053 3053 3053 3054 3054 3054 3055 3056 3057 3058 3059 3060 3061 3062 3063 3063 3063 3063 3065 3067 3068 3070
3099 3102 3102 3102 3103 3103 3104 3103 3104 3104 3101 3097 3097 3098 3098 3096 3096 3094 3093 3092 3087 3083 3080 3081 3089 3075 3046 3040 3051 3054 3056 3059 3059 3059 3059 3060 3061 3061 3062 3061 3060 3059 3057 3057 3057 3056 3057 3057 3056 3055 3054 3053 3052 3051 3050 3049 3049 3049 3049 3049 3049 3049 3049 3050 3049 3049 3049 3050 3050 3051 3051 3052 3053 3054 3055 3056 3057 3057 3057 3057 3057 3058 3060 3062 3064 3066
3098 3099 3098 3099 3099 3099 3099 3100 3101 3101 3099 3096 3096 3096 3095 3095 3094 3093 3092 3091 3088 3084 3078 3075 3083 3082 3053 3038 3049 3052 3052 3057 3056 3057 3058 3057 3058 3059 3059 3058 3057 3056 3055 3055 3055 3054 3055 3054 3052 3051 3050 3050 3049 3048 3047 3047 3047 3046 3046 3046 3046 3046 3045 3045 3045 3045 3045 3046 3046 3047 3047 3048 3049 3050 3050 3051 3051 3052 3052 3052 3052 3053 3055 3057 3059 3061
3096 3095 3094 3094 3095 3096 3096 3097 3097 3097 3096 3094 3094 3092 3092 3092 3091 3092 3090 3089 3091 3084 3076 3075 3081 3082 3057 3037 3047 3051 3050 3055 3054 3057 3059 3056 3057 3058 3056 3056 3054 3054 3054 3053 3053 3052 3052 3050 3048 3047 3046 3046 3045 3045 3044 3043 3044 3043 3043 3043 3042 3042 3041 3041 3041 3041 3041 3041 3042 3043 3044 3045 3045 3045 3046 3046 3047 3047 3047 3048 3048 3049 3050 3052 3054 3056
3092 3091 3091 3091 3092 3093 3093 3094 3093 3093 3093 3092 3092 3089 3089 3089 3087 3088 3087 3086 3091 3081 3073 3075 3078 3082 3065 3040 3043 3050 3049 3053 3054 3057 3059 3056 3057 3056 3055 3054 3052 3052 3051 3051 3051 3049 3048 3046 3044 3043 3042 3043 3042 3042 3041 3040 3040 3040 3039 3039 3038 3038 3038 3037 3037 3037 3037 3038 3039 3040 3041 3041 3042 3041 3042 3042 3043 3043 3043 3044 3044 3045 3047 3048 3050 3052
3088 3088 3088 3088 3090 3091 3090 3090 3089 3090 3090 3088 3088 3087 3086 3086 3084 3084 3083 3084 3088 3077 3071 3073 3075 3080 3066 3041 3043 3050 3049 3052 3053 3053 3055 3053 3054 3054 3053 3053 3051 3051 3050 3049 3048 3046 3045 3043 3040 3039 3038 3039 3039 3039 3039 3037 3037 3036 3035 3035 3034 3034 3034 3034 3035 3035 3035 3035 3036 3037 3037 3037 3037 3037 3038 3038 3039 3040 3040 3040 3041 3041 3043 3044 3046 3047
3084 3085 3086 3086 3086 3088 3087 3086 3086 3086 3086 3086 3085 3086 3086 3086 3084 3083 3081 3081 3081 3072 3068 3071 3072 3072 3057 3040 3044 3050 3049 3051 3051 3051 3052 3051 3051 3051 3051 3051 3050 3050 3048 3047 3045 3044 3042 3038 3036 3035 3035 3035 3036 3035 3035 3034 3034 3033 3033 3033 3032 3031 3031 3031 3032 3033 3033 3033 3033 3033 3033 3033 3033 3033 3034 3035 3035 3036 3036 3036 3036 3037 3039 3041 3042 3044
3080 3079 3081 3083 3082 3084 3084 3083 3084 3083 3082 3082 3082 3083 3084 3085 3084 3081 3079 3078 3074 3067 3065 3068 3069 3063 3049 3041 3045 3047 3047 3049 3049 3049 3050 3049 3049 3047 3047 3048 3048 3047 3045 3044 3043 3041 3039 3035 3033 3032 3032 3032 3032 3032 3031 3031 3030 3030 3030 3030 3029 3029 3028 3028 3029 3029 3030 3030 3030 3029 3029 3029 3028 3029 3030 3031 3032 3033 3033 3033 3033 3034 3036 3038 3040 3042
3077 3073 3074 3078 3078 3079 3079 3080 3081 3080 3079 3078 3078 3079 3078 3078 3077 3074 3072 3071 3066 3063 3063 3065 3063 3054 3044 3041 3043 3044 3045 3046 3046 3047 3047 3047 3047 3045 3045 3045 3044 3044 3043 3042 3040 3038 3036 3033 3031 3030 3029 3030 3030 3029 3028 3028 3028 3028 3028 3027 3027 3026 3025 3024 3024 3024 3025 3025 3025 3025 3025 3025 3025 3026 3027 3027 3028 3029 3029 3030 3031 3032 3033 3035 3037 3039
3075 3070 3070 3073 3074 3074 3075 3075 3077 3077 3075 3074 3074 3075 3072 3071 3071 3069 3066 3064 3063 3061 3060 3059 3053 3045 3041 3040 3040 3041 3041 3041 3043 3044 3044 3044 3044 3043 3044 3043 3042 3041 3040 3039 3037 3035 3034 3032 3030 3028 3027 3027 3027 3027 3026 3025 3025 3025 3025 3024 3024 3023 3023 3022 3021 3021 3021 3021 3021 3021 3022 3022 3022 3022 3023 3024 3025 3026 3026 3027 3028 3029 3031 3032 3034 3036
3072 3067 3068 3070 3069 3070 3071 3071 3072 3072 3071 3070 3069 3069 3068 3068 3068 3067 3063 3061 3062 3059 3055 3053 3046 3041 3041 3037 3036 3038 3036 3037 3039 3038 3040 3041 3041 3042 3042 3041 3039 3038 3036 3035 3034 3032 3031 3030 3027 3026 3026 3025 3024 3024 3023 3023 3023 3022 3022 3022 3021 3020 3020 3019 3019 3018 3018 3018 3017 3018 3018 3019 3019 3020 3020 3021 3022 3022 3023 3024 3025 3026 3028 3029 3030 3031
3069 3065 3066 3067 3065 3066 3068 3068 3068 3068 3067 3065 3064 3065 3065 3065 3064 3064 3061 3059 3061 3056 3049 3047 3043 3041 3041 3034 3032 3035 3033 3034 3036 3035 3036 3038 3038 3040 3040 3039 3037 3035 3032 3030 3029 3028 3028 3026 3024 3023 3023 3022 3021 3020 3020 3019 3019 3019 3019 3019 3018 3017 3017 3016 3016 3016 3016 3016 3015 3015 3016 3016 3017 3017 3018 3018 3019 3019 3019 3021 3022 3023 3024 3025 3026 3027
3066 3062 3061 3064 3062 3061 3063 3065 3063 3062 3063 3061 3060 3062 3063 3061 3059 3060 3059 3056 3056 3050 3043 3042 3040 3038 3039 3034 3032 3034 3030 3030 3033 3034 3035 3037 3038 3039 3038 3035 3032 3029 3027 3026 3025 3025 3024 3022 3021 3019 3019 3018 3018 3017 3016 3015 3014 3014 3014 3014 3014 3014 3014 3014 3013 3014 3014 3014 3014 3013 3014 3014 3014 3015 3015 3015 3016 3016 3016 3018 3019 3020 3021 3023 3023 3023
3063 3060 3057 3059 3061 3057 3057 3058 3056 3055 3058 3057 3056 3057 3058 3057 3054 3054 3053 3051 3049 3044 3038 3037 3034 3032 3034 3034 3033 3033 3030 3029 3030 3031 3033 3035 3036 3035 3031 3028 3026 3024 3023 3022 3021 3020 3018 3017 3016 3015 3015 3014 3014 3014 3013 3012 3011 3010 3010 3010 3011 3011 3011 3011 3011 3011 3012 3012 3012 3011 3011 3011 3011 3012 3012 3013 3013 3013 3014 3015 3016 3017 3018 3019 3019 3019
3061 3057 3052 3054 3058 3053 3049 3049 3049 3050 3052 3051 3051 3052 3052 3051 3050 3049 3046 3045 3044 3039 3036 3033 3028 3026 3030 3032 3032 3030 3028 3030 3030 3028 3027 3027 3027 3026 3024 3022 3022 3021 3019 3017 3015 3013 3012 3011 3011 3011 3011 3011 3011 3011 3010 3010 3009 3008 3007 3006 3007 3007 3007 3007 3008 3008 3007 3007 3007 3007 3008 3008 3008 3007 3008 3008 3009 3010 3012 3012 3012 3013 3014 3014 3014 3014
3057 3053 3048 3049 3050 3045 3042 3044 3046 3046 3047 3047 3045 3046 3047 3047 3047 3045 3039 3039 3039 3034 3031 3029 3022 3021 3027 3030 3029 3027 3029 3031 3026 3021 3020 3018 3018 3020 3020 3019 3018 3017 3015 3012 3010 3007 3006 3006 3006 3006 3006 3007 3008 3007 3007 3007 3006 3005 3004 3002 3002 3002 3001 3001 3002 3002 3002 3002 3001 3002 3003 3003 3003 3003 3003 3003 3004 3005 3007 3008 3009 3009 3009 3009 3009 3009
3054 3050 3045 3042 3041 3039 3040 3043 3044 3042 3042 3042 3040 3041 3042 3041 3042 3040 3034 3033 3033 3027 3027 3026 3018 3017 3022 3026 3026 3027 3030 3026 3016 3013 3016 3014 3011 3012 3012 3011 3011 3011 3011 3009 3006 3004 3002 3001 3001 3001 3002 3003 3003 3003 3002 3003 3002 3001 2999 2998 2997 2995 2994 2995 2995 2996 2996 2997 2996 2996 2996 2995 2996 2997 2998 2999 2999 3000 3001 3002 3003 3003 3004 3004 3004 3004
3048 3045 3041 3036 3035 3035 3036 3038 3039 3037 3036 3035 3034 3036 3037 3035 3036 3034 3029 3029 3027 3024 3025 3023 3015 3013 3017 3021 3024 3025 3024 3018 3010 3011 3013 3009 3006 3005 3003 3003 3003 3003 3004 3004 3003 3002 3000 2998 2998 2997 2998 2998 2999 2998 2998 2997 2997 2995 2994 2993 2991 2990 2989 2989 2989 2990 2991 2992 2992 2991 2990 2989 2990 2990 2990 2991 2993 2994 2996 2997 2997 2997 2997 2998 2998 2998
3042 3041 3039 3035 3033 3031 3032 3033 3033 3032 3031 3029 3029 3032 3031 3030 3031 3028 3026 3026 3022 3020 3023 3018 3009 3010 3016 3019 3019 3018 3018 3015 3010 3008 3007 3004 3002 3000 2998 2997 2996 2995 2996 2997 2997 2996 2996 2994 2994 2993 2993 2993 2992 2992 2992 2991 2991 2990 2988 2986 2985 2983 2983 2982 2982 2983 2983 2984 2985 2986 2985 2985 2984 2984 2983 2984 2985 2986 2987 2989 2990 2990 2990 2991 2991 2992
3037 3036 3036 3034 3030 3028 3028 3029 3028 3027 3026 3025 3026 3028 3028 3027 3027 3025 3024 3023 3018 3015 3017 3013 3006 3007 3013 3015 3013 3012 3013 3012 3008 3003 3002 3001 2999 2996 2995 2993 2992 2991 2989 2989 2989 2989 2989 2989 2988 2988 2987 2987 2986 2986 2985 2985 2985 2984 2982 2980 2978 2977 2976 2975 2976 2975 2974 2975 2976 2977 2978 2978 2978 2978 2978 2978 2978 2978 2978 2979 2980 2981 2982 2982 2983 2983
3032 3029 3030 3029 3026 3024 3024 3024 3025 3024 3022 3022 3022 3023 3023 3023 3023 3022 3020 3017 3013 3010 3009 3009 3006 3004 3007 3009 3007 3006 3007 3006 3004 3001 2999 2997 2995 2993 2992 2989 2988 2986 2984 2983 2982 2981 2981 2981 2981 2981 2981 2980 2980 2979 2979 2978 2977 2977 2976 2973 2972 2970 2969 2968 2968 2968 2967 2967 2967 2968 2968 2968 2969 2969 2970 2970 2970 2970 2969 2969 2969 2970 2972 2973 2973 2974
3028 3024 3024 3024 3021 3020 3020 3019 3021 3020 3018 3018 3018 3017 3017 3017 3017 3017 3013 3009 3011 3007 3001 3003 3004 3001 3000 3001 3000 3000 3000 2997 2996 2997 2995 2992 2990 2988 2987 2985 2984 2982 2980 2978 2977 2975 2975 2974 2974 2974 2973 2972 2972 2972 2973 2972 2971 2969 2967 2965 2964 2962 2962 2961 2961 2960 2960 2960 2960 2960 2959 2959 2959 2960 2960 2961 2961 2961 2961 2961 2960 2961 2962 2962 2963 2964
3024 3019 3019 3019 3016 3016 3017 3015 3016 3016 3013 3014 3013 3012 3011 3011 3011 3009 3004 3004 3007 3003 2996 2998 3000 2996 2994 2993 2994 2994 2992 2989 2988 2988 2987 2986 2985 2983 2982 2980 2979 2977 2975 2974 2972 2971 2969 2968 2967 2966 2965 2965 2964 2964 2964 2964 2963 2961 2959 2957 2956 2955 2954 2954 2954 2953 2953 2953 2953 2952 2952 2951 2952 2952 2952 2952 2952 2952 2952 2953 2953 2953 2953 2953 2954 2955
3020 3014 3014 3014 3011 3010 3012 3011 3011 3011 3009 3008 3007 3007 3007 3006 3004 3001 2999 2999 3000 2996 2993 2994 2994 2992 2988 2986 2988 2988 2986 2985 2985 2983 2981 2980 2979 2978 2977 2975 2973 2971 2970 2968 2967 2966 2964 2963 2961 2959 2958 2957 2956 2955 2954 2954 2953 2953 2952 2950 2949 2948 2947 2948 2947 2946 2946 2946 2946 2945 2945 2945 2945 2944 2944 2943 2943 2944 2944 2944 2944 2945 2945 2945 2945 2946
3016 3011 3011 3011 3007 3005 3007 3007 3007 3007 3004 3001 3001 3001 3001 2999 2996 2995 2994 2994 2992 2989 2989 2989 2988 2986 2983 2981 2982 2982 2980 2980 2979 2978 2977 2975 2974 2973 2972 2970 2969 2966 2964 2963 2962 2961 2959 2958 2956 2954 2952 2950 2949 2947 2946 2945 2945 2945 2944 2944 2942 2941 2941 2941 2941 2941 2940 2939 2938 2938 2938 2937 2937 2936 2936 2935 2935 2935 2935 2935 2935 2936 2936 2937 2937 2937
3012 3008 3007 3008 3003 2999 3002 3003 3001 3001 2999 2995 2994 2994 2994 2991 2989 2989 2989 2987 2985 2983 2982 2983 2982 2980 2978 2977 2977 2977 2976 2975 2974 2973 2972 2971 2970 2969 2967 2965 2963 2961 2960 2958 2955 2954 2953 2952 2950 2948 2946 2945 2943 2942 2940 2939 2938 2938 2938 2938 2937 2935 2934 2934 2934 2934 2933 2932 2931 2930 2929 2929 2929 2928 2927 2926 2926 2926 2926 2926 2926 2927 2927 2928 2928 2929
3008 3005 3004 3005 2999 2993 2997 2998 2996 2997 2993 2986 2986 2987 2986 2985 2984 2983 2982 2981 2980 2978 2977 2976 2975 2974 2973 2973 2972 2972 2972 2971 2970 2969 2967 2966 2965 2964 2962 2961 2959 2957 2955 2953 2950 2949 2947 2945 2945 2943 2942 2940 2939 2938 2937 2935 2933 2932 2931 2931 2930 2929 2928 2926 2926 2926 2925 2925 2923 2922 2921 2920 2920 2919 2918 2917 2917 2916 2916 2917 2918 2918 2919 2919 2920 2920
3003 3001 3000 3002 2996 2990 2992 2993 2993 2992 2984 2975 2977 2981 2979 2978 2977 2976 2975 2974 2973 2973 2972 2971 2970 2969 2969 2968 2967 2967 2967 2967 2966 2965 2964 2963 2961 2959 2957 2957 2955 2953 2952 2949 2947 2944 2942 2941 2939 2939 2938 2937 2935 2934 2933 2932 2930 2928 2926 2925 2924 2923 2921 2919 2918 2918 2917 2917 2916 2914 2913 2912 2912 2911 2910 2909 2908 2908 2907 2908 2909 2910 2910 2911 2912 2912
2997 2997 2996 2996 2993 2987 2988 2991 2989 2983 2974 2969 2973 2975 2973 2972 2972 2971 2969 2968 2968 2968 2967 2966 2966 2965 2965 2964 2963 2962 2962 2961 2961 2961 2960 2959 2957 2955 2954 2952 2950 2949 2947 2945 2942 2940 2939 2937 2935 2934 2933 2932 2931 2930 2928 2927 2926 2924 2923 2922 2920 2918 2916 2914 2912 2911 2910 2910 2909 2908 2907 2906 2905 2903 2902 2901 2900 2899 2899 2899 2899 2901 2901 2902 2903 2904
2992 2992 2991 2989 2987 2984 2985 2986 2980 2972 2968 2969 2970 2969 2969 2968 2967 2966 2965 2963 2963 2964 2963 2963 2962 2961 2961 2960 2959 2958 2957 2956 2957 2956 2955 2953 2952 2951 2949 2948 2946 2943 2941 2939 2937 2936 2934 2932 2930 2928 2927 2925 2925 2924 2923 2921 2920 2918 2918 2917 2915 2914 2911 2908 2906 2905 2904 2903 2902 2901 2900 2899 2898 2896 2894 2893 2892 2891 2890 2890 2890 2891 2892 2893 2894 2896
2984 2985 2984 2982 2981 2980 2978 2975 2972 2968 2966 2967 2966 2966 2965 2964 2962 2962 2961 2961 2961 2960 2960 2959 2959 2958 2957 2956 2955 2954 2953 2952 2952 2952 2950 2948 2947 2946 2944 2943 2941 2939 2937 2935 2933 2932 2930 2927 2925 2923 2920 2919 2918 2917 2916 2915 2913 2912 2911 2910 2909 2908 2906 2903 2901 2899 2897 2897 2896 2895 2894 2892 2891 2890 2888 2886 2885 2883 2882 2882 2882 2882 2883 2883 2885 2886
2978 2978 2979 2978 2976 2975 2974 2971 2969 2967 2964 2962 2963 2963 2962 2961 2960 2959 2958 2957 2958 2958 2956 2956 2955 2954 2953 2952 2951 2950 2948 2947 2947 2947 2946 2943 2942 2941 2940 2939 2937 2935 2933 2931 2929 2927 2926 2923 2920 2917 2915 2913 2911 2910 2909 2908 2907 2904 2903 2902 2900 2899 2898 2897 2895 2893 2891 2890 2890 2889 2888 2886 2884 2883 2882 2880 2878 2876 2875 2874 2873 2874 2874 2874 2875 2876
2974 2974 2975 2975 2973 2972 2972 2968 2965 2962 2960 2960 2961 2961 2959 2958 2958 2957 2956 2953 2953 2954 2954 2952 2952 2951 2949 2948 2947 2946 2944 2942 2941 2943 2943 2940 2938 2937 2935 2933 2932 2931 2929 2927 2924 2922 2920 2917 2915 2912 2910 2908 2906 2904 2902 2900 2898 2897 2895 2894 2892 2890 2889 2888 2887 2886 2885 2884 2883 2882 2881 2880 2878 2876 2875 2873 2872 2869 2867 2866 2865 2865 2865 2865 2866 2867
2971 2971 2972 2971 2969 2969 2968 2964 2961 2958 2957 2958 2959 2959 2958 2956 2955 2956 2955 2952 2951 2952 2951 2950 2949 2948 2946 2945 2943 2942 2941 2939 2937 2938 2939 2937 2934 2933 2931 2929 2927 2925 2923 2922 2919 2917 2914 2912 2909 2907 2905 2903 2901 2898 2896 2893 2891 2889 2888 2886 2884 2882 2880 2879 2878 2878 2878 2877 2876 2875 2874 2873 2872 2870 2869 2867 2865 2863 2861 2859 2857 2856 2856 2856 2857 2858
2969 2969 2968 2967 2966 2965 2964 2961 2957 2954 2954 2955 2956 2956 2956 2954 2953 2953 2951 2950 2950 2950 2948 2946 2946 2945 2943 2941 2939 2938 2937 2936 2934 2932 2933 2932 2929 2928 2926 2924 2922 2920 2918 2916 2914 2911 2908 2905 2903 2901 2900 2898 2896 2893 2890 2887 2884 2883 2880 2878 2876 2873 2872 2871 2869 2869 2868 2869 2869 2868 2867 2866 2865 2864 2863 2861 2859 2858 2855 2853 2852 2850 2849 2849 2849 2850
2965 2964 2963 2962 2961 2961 2960 2958 2955 2951 2951 2952 2952 2953 2953 2951 2949 2948 2947 2947 2947 2946 2944 2943 2941 2940 2939 2937 2935 2934 2932 2931 2930 2928 2927 2926 2924 2922 2920 2919 2917 2915 2913 2911 2909 2906 2902 2899 2897 2895 2893 2892 2890 2888 2885 2881 2877 2875 2873 2870 2868 2865 2864 2863 2861 2860 2859 2859 2860 2860 2860 2859 2858 2857 2856 2855 2853 2852 2850 2848 2846 2845 2843 2842 2842 2842
2962 2961 2959 2958 2957 2957 2956 2955 2952 2948 2947 2949 2949 2949 2949 2947 2945 2945 2944 2943 2943 2942 2941 2939 2937 2937 2935 2933 2931 2930 2928 2926 2925 2923 2922 2920 2918 2916 2914 2912 2910 2908 2906 2904 2902 2900 2896 2892 2890 2888 2887 2885 2884 2881 2879 2875 2870 2867 2864 2862 2861 2858 2856 2855 2854 2852 2851 2850 2850 2851 2851 2850 2849 2849 2848 2848 2847 2845 2845 2844 2842 2839 2838 2836 2835 2835
2958 2957 2955 2954 2954 2954 2951 2949 2946 2944 2945 2947 2946 2945 2945 2944 2943 2942 2940 2939 2939 2938 2936 2934 2933 2932 2931 2928 2926 2925 2923 2921 2920 2918 2916 2914 2912 2910 2908 2906 2904 2902 2900 2897 2895 2893 2889 2885 2882 2881 2879 2879 2877 2874 2871 2867 2863 2860 2857 2855 2852 2850 2848 2847 2846 2845 2843 2842 2841 2841 2841 2841 2841 2840 2840 2839 2838 2838 2838 2838 2836 2834 2831 2830 2829 2828
2952 2953 2952 2950 2950 2949 2946 2943 2941 2941 2943 2943 2942 2941 2941 2940 2939 2939 2937 2935 2934 2933 2931 2929 2927 2927 2925 2923 2921 2920 2918 2916 2914 2912 2910 2907 2905 2904 2902 2899 2898 2895 2893 2891 2888 2886 2882 2878 2875 2873 2871 2871 2870 2867 2864 2860 2855 2852 2850 2849 2845 2842 2840 2838 2837 2836 2835 2834 2833 2831 2831 2830 2831 2831 2830 2830 2829 2829 2829 2829 2829 2828 2826 2824 2823 2822
2948 2949 2949 2946 2944 2944 2941 2937 2937 2938 2938 2939 2938 2937 2937 2936 2935 2934 2932 2930 2929 2928 2926 2924 2922 2921 2920 2918 2915 2914 2912 2910 2908 2906 2904 2901 2899 2897 2895 2893 2891 2889 2886 2883 2882 2879 2875 2871 2868 2866 2863 2862 2862 2860 2857 2854 2849 2845 2843 2841 2838 2835 2832 2830 2827 2826 2826 2825 2824 2823 2822 2820 2820 2820 2820 2820 2820 2820 2820 2820 2820 2821 2821 2819 2818 2817
2942 2943 2943 2941 2940 2938 2932 2930 2932 2934 2934 2934 2933 2933 2932 2932 2931 2930 2928 2925 2924 2923 2922 2920 2918 2917 2915 2913 2910 2908 2906 2905 2902 2900 2898 2895 2892 2890 2888 2886 2884 2882 2879 2877 2874 2871 2867 2863 2860 2858 2855 2853 2853 2852 2849 2846 2843 2840 2836 2833 2830 2827 2824 2822 2819 2817 2815 2815 2814 2814 2813 2811 2810 2810 2810 2810 2810 2810 2810 2811 2811 2811 2813 2813 2814 2813
2938 2937 2936 2934 2934 2930 2925 2925 2929 2930 2929 2929 2929 2928 2927 2927 2925 2925 2923 2921 2919 2918 2917 2915 2913 2911 2910 2908 2905 2902 2900 2899 2897 2893 2891 2889 2886 2884 2882 2879 2876 2874 2872 2870 2866 2862 2859 2855 2852 2849 2846 2843 2843 2842 2839 2835 2834 2832 2829 2825 2821 2818 2814 2812 2810 2808 2806 2805 2803 2803 2803 2802 2801 2800 2799 2799 2800 2800 2801 2801 2801 2801 2803 2805 2806 2807
2934 2931 2928 2928 2927 2924 2921 2922 2925 2924 2923 2924 2924 2923 2923 2922 2919 2918 2918 2916 2914 2913 2911 2910 2908 2906 2904 2902 2900 2897 2894 2893 2891 2887 2884 2882 2880 2878 2875 2872 2869 2866 2864 2862 2858 2854 2850 2847 2843 2840 2836 2834 2833 2831 2827 2824 2823 2821 2818 2814 2810 2807 2803 2801 2800 2797 2796 2795 2793 2792 2792 2791 2790 2790 2790 2789 2790 2790 2791 2792 2791 2791 2793 2795 2796 2798
2927 2924 2923 2924 2921 2917 2916 2919 2921 2919 2917 2918 2919 2918 2917 2916 2914 2912 2912 2910 2909 2907 2906 2905 2903 2902 2899 2897 2894 2891 2888 2886 2885 2881 2877 2875 2874 2871 2868 2865 2862 2859 2856 2853 2850 2846 2842 2838 2834 2830 2826 2824 2823 2819 2815 2813 2811 2810 2806 2801 2797 2793 2790 2789 2788 2786 2784 2783 2782 2781 2781 2780 2779 2780 2779 2779 2780 2780 2780 2781 2782 2781 2782 2784 2786 2787
2919 2918 2919 2919 2915 2912 2913 2916 2917 2914 2912 2912 2914 2913 2911 2910 2909 2907 2906 2905 2904 2902 2900 2899 2897 2896 2895 2893 2889 2886 2882 2880 2878 2875 2871 2869 2868 2864 2861 2857 2853 2850 2848 2845 2840 2836 2833 2829 2825 2820 2816 2813 2810 2807 2803 2801 2800 2798 2794 2788 2782 2778 2777 2777 2775 2772 2772 2771 2770 2769 2769 2768 2768 2769 2768 2769 2770 2769 2769 2771 2772 2772 2773 2774 2775 2777